[[{"header":{"parameterUnit":"m.s-1","parameterCategory":1,"la1":30.2991,"la2":30.254,"lo1":-89.0895,"lo2":-89.0444,"dy":0.0017,"dx":0.0017,"nx":28,"ny":28,"refTime":"2023-09-27T21:00:00:Z","depth":0,"parameterNumber":2,"parameterNumberName":"U-component_of_WINDS"},"data":[0,0,0,0,0,0,0,0,0,0,0,0,0,0,0,0,0,0,0,0,0,0,0,0,0,0,0,0,0,0,0,0,0,0,0,0,0,0,0,0,0,0,0,0,0,0,0,0,0,0,0,0,0,0,0,0,0,0,-4.1931,-4.1931,0,-4.2007,-4.2008,-4.2009,-4.1899,-4.1895,-4.1891,-4.1888,-4.1969,-4.1974,-4.198,0,0,0,0,0,0,0,0,0,0,0,0,0,-4.1692,-4.1697,-4.193,-4.1931,-4.1932,-4.2007,-4.2008,-4.2009,-4.19,-4.1895,-4.189,-4.1886,-4.1967,-4.1974,-4.1981,0,0,0,0,0,0,0,0,0,0,0,0,0,-4.1785,-4.1698,-4.193,-4.1887,-4.1884,-4.2007,-4.2008,-4.201,-4.1901,-4.1895,-4.1889,-4.1884,-4.1965,-4.1973,-4.1982,-4.2152,0,0,-4.2008,-4.2012,0,0,0,0,0,0,0,0,-4.178,-4.1794,-4.1892,-4.189,-4.1887,-4.1938,-4.1954,-4.2058,-4.1902,-4.1894,-4.1888,-4.1881,-4.1963,-4.1972,-4.1999,-4.2156,-4.2159,-4.2009,-4.2014,-4.2018,-4.202,0,0,0,0,0,0,0,-4.1773,-4.179,-4.1961,-4.1894,-4.189,-4.1864,-4.1871,-4.1973,-4.1961,-4.1895,-4.1887,-4.1897,-4.1961,-4.1991,-4.2,-4.2161,-4.2009,-4.2016,-4.2022,-4.2025,-4.2463,-4.247,0,0,0,0,0,0,-4.1772,-4.1785,-4.1958,-4.1963,-4.1818,-4.1873,-4.1881,-4.1927,-4.1959,-4.1958,-4.1902,-4.1892,-4.1979,-4.199,-4.2003,-4.2206,-4.2018,-4.2026,-4.2031,-4.2457,-4.2465,-4.2472,0,0,0,0,0,0,-4.1767,-4.1788,-4.1955,-4.1872,-4.1891,-4.1884,-4.1937,-4.1932,-4.1962,-4.1965,-4.1962,-4.1935,-4.1975,-4.199,-4.2116,-4.2207,-4.203,-4.2038,-4.245,-4.246,-4.2468,-4.2614,0,0,0,0,0,0,-4.1761,-4.1787,-4.1851,-4.1874,-4.1896,-4.2067,-4.1942,-4.1938,-4.1977,-4.1964,-4.1995,-4.1995,-4.1971,-4.2104,-4.2125,-4.2216,-4.2044,-4.2441,-4.2454,-4.2465,-4.2601,-4.2627,-4.265,0,0,0,0,0,-4.1753,-4.1889,-4.1855,-4.1877,-4.1976,-4.2073,-4.2085,-4.2055,-4.1985,-4.205,-4.2052,-4.1994,-4.2194,-4.2118,-4.214,-4.2236,-4.2435,-4.245,-4.2464,-4.259,-4.2622,-4.2649,0,0,0,0,0,0,-4.1877,-4.1891,-4.1854,-4.2001,-4.2037,-4.2054,-4.2135,-4.2089,-4.2146,-4.2132,-4.2092,-4.21,-4.2235,-4.2247,-4.2162,-4.2403,-4.2303,-4.2323,-4.239,-4.2421,-4.2445,-4.244,-4.2052,0,0,0,0,0,-4.1922,-4.1998,-4.2007,-4.2136,-4.2156,-4.2143,-4.2184,-4.2157,-4.2192,-4.2207,-4.2218,-4.2255,-4.2326,-4.2374,-4.2439,-4.2601,-4.2608,-4.2678,-4.2703,-4.2723,-4.2741,-4.283,-4.2862,-4.2519,-4.2519,-4.2519,0,0,-4.2015,-4.2032,-4.2083,-4.2162,-4.2186,-4.2268,-4.2156,-4.2246,-4.2307,-4.2221,-4.234,-4.235,-4.2389,-4.2534,-4.2599,-4.2549,-4.2837,-4.2741,-4.2757,-4.2764,-4.2848,-4.288,-4.2909,-4.2529,-4.2527,-4.2526,0,0,-4.2227,-4.2246,-4.2358,-4.2384,-4.2422,-4.2413,-4.244,-4.2464,-4.2467,-4.2587,-4.2524,-4.2596,-4.2719,-4.275,-4.2782,-4.3007,-4.2957,-4.3029,-4.3158,-4.3245,-4.3272,-4.3295,-4.3378,-4.3408,-4.3047,-4.3047,-4.3047,0,-4.2338,-4.2457,-4.2421,-4.2516,-4.2554,-4.2479,-4.2592,-4.262,-4.2678,-4.2706,-4.2649,-4.2803,-4.2824,-4.2976,-4.3031,-4.3059,-4.309,-4.3026,-4.327,-4.3294,-4.3316,-4.3394,-4.3425,-4.3056,-4.3055,-4.3054,-4.3053,0,-4.2593,-4.2677,-4.2762,-4.282,-4.2867,-4.2971,-4.2952,-4.3004,-4.2974,-4.2971,-4.3094,-4.3117,-4.3186,-4.322,-4.3191,-4.337,-4.3338,-4.3276,-4.3175,-4.3358,-4.3431,-4.346,-4.3068,-4.3065,-4.3063,-4.3061,0,0,-4.2885,-4.2922,-4.2955,-4.2981,-4.3018,-4.3082,-4.3184,-4.3251,-4.3298,-4.3341,-4.3426,-4.3532,-4.3476,-4.3512,-4.3486,-4.3563,-4.3743,-4.3492,-4.3492,-4.354,-4.3943,-4.399,-4.4025,-4.3709,-4.3714,-4.3719,-4.394,0,-4.3098,-4.3272,-4.3243,-4.3413,-4.3491,-4.3422,-4.3511,-4.3544,-4.3544,-4.3611,-4.3611,-4.3689,-4.3607,-4.3629,-4.3701,-4.3705,-4.3823,-4.3689,-4.379,-4.3794,-4.3784,-4.4063,-4.4113,-4.4321,-4.3968,-4.3973,-4.3976,0,-4.3369,-4.3422,-4.36,-4.3626,-4.3658,-4.3738,-4.3799,-4.3863,-4.39,-4.3895,-4.3937,-4.3897,-4.4,-4.3896,-4.4039,-4.3948,-4.3987,-4.3996,-4.4003,-4.4013,-4.3897,-4.4082,-4.4386,-4.4418,-4.402,-4.4017,-4.4014,0,-4.3567,-4.3683,-4.3805,-4.3829,-4.3862,-4.3921,-4.3937,-4.3968,-4.4011,-4.4065,-4.4093,-4.4158,-4.4194,-4.4245,-4.4225,-4.4151,-4.4373,-4.4266,-4.4373,-4.4374,-4.4424,-4.4421,-4.474,-4.4447,-4.4446,-4.4445,-4.4445,0,-4.3809,-4.3921,-4.3894,-4.397,-4.4094,-4.4059,-4.4183,-4.4192,-4.422,-4.4297,-4.4241,-4.4314,-4.4282,-4.4354,-4.4339,-4.446,-4.4476,-4.4476,-4.4471,-4.4483,-4.4483,-4.4509,-4.4495,-4.4454,-4.4452,-4.445,-4.4449,0,-4.4051,-4.4038,-4.4166,-4.4188,-4.4196,-4.4286,-4.4305,-4.4376,-4.4372,-4.447,-4.4491,-4.4486,-4.4567,-4.4552,-4.4642,-4.4632,-4.4784,-4.476,-4.4772,-4.4767,-4.4875,-4.4866,-4.5224,-4.527,-4.4945,-4.4948,-4.4951,0,-4.4207,-4.4292,-4.4322,-4.4369,-4.4391,-4.4467,-4.4511,-4.4481,-4.453,-4.4579,-4.4645,-4.4721,-4.4781,-4.4915,-4.492,-4.4989,-4.4968,-4.5088,-4.4978,-4.4987,-4.4972,-4.4968,-4.4977,-4.5111,-4.5114,-4.5117,-4.512,0,-4.4486,-4.4475,-4.454,-4.4605,-4.4659,-4.4708,-4.4751,-4.4793,-4.4767,-4.4825,-4.4907,-4.4954,-4.5046,-4.5124,-4.5188,-4.5206,-4.5161,-4.5155,-4.5183,-4.5196,-4.52,-4.5202,-4.4834,-4.5147,-4.5144,-4.5142,-4.5141,-4.514,-4.4691,-4.4764,-4.4797,-4.4872,-4.4902,-4.4944,-4.5013,-4.5018,-4.5086,-4.5158,-4.5137,-4.5232,-4.5268,-4.535,-4.5376,-4.545,-4.5406,-4.5447,-4.5457,-4.5468,-4.5483,-4.5187,-4.5462,-4.5461,-4.546,-4.546,-4.5459,0,-4.4968,-4.4986,-4.5056,-4.5119,-4.5179,-4.5129,-4.5175,-4.5229,-4.5312,-4.535,-4.541,-4.5506,-4.5582,-4.5593,-4.5664,-4.5722,-4.5703,-4.5742,-4.5739,-4.5744,-4.5517,-4.5486,-4.5757,-4.5757,-4.5757,-4.5757,-4.5757,-4.5757,-4.512,-4.5241,-4.5235,-4.5371,-4.5388,-4.548,-4.5511,-4.5551,-4.5581,-4.5691,-4.5753,-4.5759,-4.5787,-4.586,-4.5928,-4.5929,-4.5959,-4.6007,-4.6001,-4.5789,-4.576,-4.5731,-4.5702,-4.6014,-4.6014,-4.6222,-4.6224,-4.6225]},{"header":{"parameterUnit":"m.s-1","parameterCategory":1,"la1":30.2991,"la2":30.254,"lo1":-89.0895,"lo2":-89.0444,"dy":0.0017,"dx":0.0017,"nx":28,"ny":28,"refTime":"2023-09-27T21:00:00:Z","depth":0,"parameterNumber":3,"parameterNumberName":"V-component_of_WINDS"},"data":[0,0,0,0,0,0,0,0,0,0,0,0,0,0,0,0,0,0,0,0,0,0,0,0,0,0,0,0,0,0,0,0,0,0,0,0,0,0,0,0,0,0,0,0,0,0,0,0,0,0,0,0,0,0,0,0,0,0,0.7146,0.7144,0,0.6965,0.6963,0.6961,0.6893,0.6894,0.6894,0.6895,0.6701,0.6696,0.669,0,0,0,0,0,0,0,0,0,0,0,0,0,0.7428,0.7424,0.7147,0.7144,0.7142,0.6965,0.6963,0.696,0.6893,0.6894,0.6894,0.6895,0.6703,0.6697,0.669,0,0,0,0,0,0,0,0,0,0,0,0,0,0.7282,0.7422,0.7147,0.7087,0.708,0.6966,0.6963,0.696,0.6893,0.6894,0.6895,0.6895,0.6705,0.6697,0.6689,0.6618,0,0,0.6663,0.6659,0,0,0,0,0,0,0,0,0.7291,0.7272,0.7098,0.7091,0.7083,0.6953,0.6991,0.6845,0.6893,0.6964,0.6895,0.6896,0.6784,0.6769,0.6733,0.6609,0.6601,0.6662,0.6657,0.6653,0.6651,0,0,0,0,0,0,0,0.7301,0.7279,0.7074,0.7096,0.7087,0.7068,0.7048,0.6963,0.6871,0.6958,0.6952,0.6932,0.678,0.6741,0.6728,0.6598,0.6662,0.6654,0.6649,0.6646,0.6406,0.6405,0,0,0,0,0,0,0.7322,0.7288,0.708,0.7069,0.7191,0.7062,0.704,0.6994,0.6871,0.6854,0.6932,0.693,0.6755,0.6738,0.672,0.6628,0.6653,0.6645,0.664,0.6407,0.6406,0.6405,0,0,0,0,0,0,0.7328,0.7304,0.7088,0.7177,0.7148,0.7056,0.7005,0.6989,0.6951,0.6852,0.6834,0.6909,0.6755,0.6733,0.6644,0.6621,0.6641,0.6633,0.6409,0.6407,0.6405,0.6445,0,0,0,0,0,0,0.7337,0.7307,0.728,0.7177,0.7144,0.7016,0.7003,0.6985,0.6937,0.6933,0.6826,0.681,0.6754,0.6658,0.6636,0.6609,0.6627,0.6411,0.6408,0.6406,0.6445,0.6445,0.6444,0,0,0,0,0,0.7347,0.7297,0.7279,0.7254,0.7109,0.7015,0.6996,0.6935,0.6936,0.6907,0.6844,0.6813,0.6628,0.6649,0.6624,0.6595,0.6412,0.6409,0.6406,0.6445,0.6445,0.6444,0,0,0,0,0,0,0.7396,0.7282,0.7261,0.7177,0.7107,0.7004,0.6966,0.6936,0.6862,0.6861,0.6787,0.6764,0.6681,0.6629,0.6655,0.652,0.6518,0.651,0.6556,0.6555,0.6554,0.6567,0.662,0,0,0,0,0,0.7398,0.7334,0.7237,0.7171,0.7138,0.7059,0.7015,0.6975,0.6898,0.6867,0.6797,0.6722,0.6647,0.6598,0.6523,0.6439,0.6413,0.6406,0.6406,0.6406,0.6399,0.6349,0.6344,0.6396,0.6396,0.6396,0,0,0.7399,0.7329,0.7292,0.718,0.712,0.7053,0.7033,0.6963,0.6912,0.6855,0.6768,0.6715,0.6626,0.6539,0.6497,0.6493,0.638,0.6402,0.6403,0.6396,0.6346,0.6341,0.6337,0.6394,0.6394,0.6394,0,0,0.7367,0.7309,0.7248,0.719,0.7102,0.705,0.7036,0.6938,0.6901,0.6813,0.6769,0.6707,0.6579,0.6517,0.6469,0.6417,0.6384,0.6394,0.639,0.6342,0.6338,0.6334,0.6313,0.6307,0.6388,0.6388,0.6389,0,0.7378,0.7278,0.7219,0.7152,0.7102,0.7053,0.6989,0.6935,0.6826,0.6792,0.6791,0.663,0.6566,0.6464,0.6452,0.6415,0.6394,0.6404,0.6344,0.634,0.6335,0.6314,0.6306,0.639,0.639,0.639,0.639,0,0.7296,0.7227,0.7188,0.7087,0.7034,0.6969,0.6898,0.6852,0.6817,0.6765,0.6676,0.6599,0.6507,0.6481,0.6445,0.6373,0.6373,0.6359,0.6355,0.6333,0.6311,0.6303,0.6392,0.6392,0.6391,0.6391,0,0,0.7285,0.7156,0.7142,0.7096,0.6996,0.694,0.6873,0.6787,0.6747,0.6675,0.6614,0.6509,0.6496,0.6441,0.6399,0.6357,0.6319,0.6348,0.6344,0.6343,0.6232,0.6241,0.6233,0.6299,0.6297,0.6296,0.6239,0,0.7238,0.7117,0.7063,0.6966,0.69,0.6853,0.6794,0.6726,0.6676,0.6612,0.6556,0.6482,0.6471,0.6438,0.6395,0.6333,0.6295,0.6336,0.6239,0.6236,0.6259,0.6222,0.6231,0.6181,0.623,0.6229,0.6228,0,0.7165,0.7095,0.6992,0.6902,0.6872,0.682,0.6737,0.6677,0.6598,0.6565,0.6506,0.6466,0.6391,0.6395,0.629,0.632,0.6277,0.6241,0.6237,0.6222,0.6228,0.6204,0.6164,0.6155,0.6215,0.6216,0.6217,0,0.7165,0.7045,0.6968,0.693,0.6823,0.6787,0.6741,0.6663,0.6615,0.6542,0.651,0.6428,0.6383,0.632,0.6258,0.6267,0.6158,0.6157,0.6125,0.6127,0.6101,0.6103,0.605,0.608,0.608,0.608,0.608,0,0.7115,0.7053,0.6967,0.6918,0.6847,0.6787,0.6717,0.6667,0.6599,0.6539,0.6494,0.6437,0.6361,0.6295,0.6247,0.6166,0.6146,0.6115,0.6102,0.6117,0.612,0.6085,0.6085,0.6078,0.6078,0.6079,0.6079,0,0.7101,0.7041,0.6953,0.6861,0.6836,0.6787,0.6707,0.6657,0.6607,0.6532,0.651,0.643,0.635,0.6284,0.6178,0.6145,0.606,0.6047,0.6087,0.608,0.6051,0.6053,0.597,0.5955,0.5999,0.5999,0.5998,0,0.7072,0.7023,0.6927,0.6885,0.6839,0.6772,0.6723,0.6662,0.6613,0.6521,0.6482,0.64,0.6331,0.6205,0.6135,0.6054,0.6036,0.6013,0.6023,0.604,0.6032,0.6035,0.6028,0.6011,0.6011,0.6011,0.6011,0,0.7025,0.6998,0.6932,0.6855,0.6799,0.6735,0.6669,0.6637,0.6563,0.651,0.6429,0.6376,0.627,0.6187,0.61,0.6049,0.6016,0.6009,0.5997,0.6009,0.6034,0.6017,0.6082,0.601,0.601,0.601,0.601,0.601,0.7,0.6954,0.688,0.6807,0.6752,0.6693,0.6642,0.6587,0.6519,0.643,0.6398,0.6315,0.6237,0.6116,0.6066,0.5998,0.5994,0.5977,0.5972,0.5967,0.5968,0.6049,0.5982,0.5982,0.5982,0.5982,0.5982,0,0.6948,0.6899,0.6833,0.6744,0.6687,0.6667,0.6593,0.6545,0.6474,0.6406,0.634,0.6247,0.6167,0.6094,0.601,0.597,0.5953,0.595,0.595,0.5938,0.5978,0.5996,0.5965,0.5965,0.5965,0.5965,0.5965,0.5965,0.6914,0.6836,0.6801,0.6695,0.6646,0.6566,0.6526,0.647,0.6415,0.6315,0.625,0.6204,0.6133,0.6044,0.597,0.595,0.592,0.592,0.5896,0.5933,0.5936,0.5938,0.5954,0.5915,0.5915,0.5861,0.5861,0.586]}]]